FW8329 Weather Reports


time (UTC)temp
F
wind
direction
speed
knots
gust
knots
rain 1hr
in
rain 24hr
in
rain mn
in
humidity
%
barometer
mb
20260505011524 44 39 3.5 11.3 0.00 0.00 0.00 56 1006.5
20260505010020 45 38 5.2 11.3 0.00 0.00 0.00 56 1006.3
20260505004521 45 73 3.5 10.4 0.00 0.00 0.00 54 1006.3
20260505003016 46 46 5.2 11.3 0.00 0.00 0.00 52 1006.2
20260505001516 46 81 2.6 11.3 0.00 0.00 0.00 52 1006.0
20260505000023 47 72 5.2 12.2 0.00 0.00 0.00 51 1005.7
20260504234513 48 37 4.3 10.4 0.00 0.00 0.00 50 1005.4
20260504233013 49 100 4.3 10.4 0.00 0.00 0.00 48 1005.4
20260504231512 50 109 4.3 10.4 0.00 0.00 0.00 43 1005.1
20260504230013 50 46 4.3 12.2 0.00 0.00 0.00 44 1005.1
20260504224510 51 68 3.5 9.6 0.00 0.00 0.00 45 1004.9
20260504223010 50 12 4.3 11.3 0.00 0.00 0.00 43 1004.8
20260504221511 50 64 4.3 10.4 0.00 0.00 0.00 44 1004.7
20260504220009 49 74 2.6 9.6 0.00 0.00 0.00 45 1004.7
20260504214518 50 87 3.5 11.3 0.00 0.00 0.00 46 1004.8
20260504213008 51 38 3.5 11.3 0.00 0.00 0.00 44 1004.9
20260504211512 51 64 1.7 10.4 0.00 0.00 0.00 44 1004.9
20260504210005 50 4 5.2 13.0 0.00 0.00 0.00 45 1004.9
20260504204509 49 337 3.5 11.3 0.00 0.00 0.00 46 1005.1
20260504203006 48 46 3.5 8.7 0.00 0.00 0.00 47 1005.0
20260504201504 48 53 4.3 12.2 0.00 0.00 0.00 47 1004.9
20260504200003 48 56 4.3 11.3 0.00 0.00 0.00 48 1004.8
20260504194501 48 45 3.5 11.3 0.00 0.00 0.00 50 1004.8
20260504193001 48 26 3.5 9.6 0.00 0.00 0.00 51 1004.8
20260504191502 48 64 3.5 10.4 0.00 0.00 0.00 49 1004.8
20260504190116 47 20 4.3 10.4 0.00 0.00 0.00 50 1004.8
20260504184631 48 62 2.6 12.2 0.00 0.00 0.00 49 1004.8
20260504183059 49 52 3.5 9.6 0.00 0.00 0.00 50 1004.7
20260504181559 49 37 5.2 9.6 0.00 0.00 0.00 47 1004.8
20260504180058 49 13 4.3 10.4 0.00 0.00 0.00 48 1004.8
20260504174556 50 62 4.3 10.4 0.00 0.00 0.00 46 1004.9
20260504173057 49 35 6.1 12.2 0.00 0.00 0.00 45 1004.9
20260504171600 48 10 3.5 10.4 0.00 0.00 0.00 48 1005.0
20260504081543 40 46 0.0 8.7 0.00 0.00 0.00 59 1003.6
20260504050018 44 243 1.7 6.1 0.00 0.00 0.00 53 1002.0
20260504044517 44 231 0.9 4.3 0.00 0.00 0.00 54 1002.0
20260504043016 44 248 1.7 4.3 0.00 0.00 0.00 54 1001.8
20260504041515 44 237 0.9 3.5 0.00 0.00 0.00 55 1001.9
20260504040015 44 219 0.9 4.3 0.00 0.00 0.00 56 1001.7
20260504034525 42 220 0.0 0.9 0.00 0.00 0.00 65 1001.6
20260504033024 43 238 0.0 0.9 0.00 0.00 0.00 63 1001.5
20260504031514 45 229 0.0 1.7 0.00 0.00 0.00 60 1001.4
20260504030014 46 205 0.0 0.0 0.00 0.00 0.00 56 1001.2
20260504024533 49 226 0.0 0.9 0.00 0.00 0.00 52 1001.0
20260504023012 50 174 0.9 1.7 0.00 0.00 0.00 50 1000.8
20260504021511 52 331 0.0 0.9 0.00 0.00 0.00 49 1000.6
20260504020011 54 128 0.0 0.0 0.00 0.00 0.00 43 1000.6
20260504014510 57 128 0.0 1.7 0.00 0.00 0.00 39 1000.6
20260504013014 59 144 0.0 1.7 0.00 0.00 0.00 34 1000.7